Voltar ao catálogo

STARLINK-5113

AtivoComunicaçõesVLEO
NORAD 53988·PAYLOAD·🇺🇸 United States

Lançado Oct 5, 2022 de Vandenberg Space Force Base

Loading…

Próximas Passagens (próximas 24 horas)

TLE

AtualizadoSource: CelesTrak SupGP

Época: Sep 14, 2026, 20:45 UTC

1 53988C 22125AA  26257.86506944  .00020946  00000+0  61895-3 0  2578
2 53988  53.1600  78.0666 0001356  80.7901 143.7374 15.34375966    12

Acompanhe STARLINK-5113 em tempo real com AllMySat

Download on the App Store